• In Russia
  • List of Countries
  • For 7 days
  • Water Temperature
  • Satellite Maps
  • Weather Map
  • Weather Widgets
  • user-avatar
    Login

    Hourly Weather Igls

    Today, 21 August, Monday

    Time Temperature Precipitation Wind Pressure Humidity
    00:00 +10°C° 0 mm 1 mps 689 mmHg 93%
    01:00 +10°C° 0 mm 1 mps 689 mmHg 94%
    02:00 +10°C° 0 mm 1 mps 689 mmHg 94%
    03:00 +10°C° 0 mm 1 mps 689 mmHg 94%
    04:00 +10°C° 0 mm 1 mps 689 mmHg 95%
    05:00 +11°C° 0 mm 1 mps 689 mmHg 90%
    06:00 +11°C° 0 mm 1 mps 689 mmHg 86%
    07:00 +12°C° 0 mm 1 mps 689 mmHg 82%
    08:00 +14°C° 0 mm 1 mps 689 mmHg 71%
    09:00 +16°C° 0 mm 2 mps 690 mmHg 60%
    10:00 +19°C° 0 mm 2 mps 690 mmHg 49%
    11:00 +19°C° 0 mm 2 mps 690 mmHg 47%
    12:00 +20°C° 0 mm 2 mps 690 mmHg 46%
    13:00 +20°C° 0 mm 2 mps 690 mmHg 44%
    14:00 +20°C° 0 mm 2 mps 689 mmHg 47%
    15:00 +20°C° 0 mm 2 mps 689 mmHg 49%
    16:00 +20°C° 0 mm 2 mps 689 mmHg 51%
    17:00 +18°C° 0 mm 2 mps 689 mmHg 61%
    18:00 +16°C° 0 mm 2 mps 689 mmHg 71%
    19:00 +14°C° 0 mm 1 mps 688 mmHg 81%
    20:00 +13°C° 0 mm 1 mps 688 mmHg 84%
    21:00 +12°C° 0 mm 1 mps 689 mmHg 88%
    22:00 +11°C° 0 mm 1 mps 689 mmHg 92%
    23:00 +11°C° 0 mm 1 mps 689 mmHg 92%

    Tomorrow, 22 August, Tuesday

    Time Temperature Precipitation Wind Pressure Humidity
    00:00 +10°C° 0 mm 1 mps 689 mmHg 92%
    01:00 +10°C° 0 mm 1 mps 689 mmHg 92%
    02:00 +10°C° 0 mm 1 mps 688 mmHg 91%
    03:00 +10°C° 0 mm 1 mps 688 mmHg 90%
    04:00 +10°C° 0 mm 1 mps 688 mmHg 89%
    05:00 +11°C° 0 mm 1 mps 688 mmHg 84%
    06:00 +13°C° 0 mm 1 mps 689 mmHg 80%
    07:00 +14°C° 0 mm 1 mps 689 mmHg 75%
    08:00 +18°C° 0 mm 1 mps 689 mmHg 67%
    09:00 +20°C° 0 mm 1 mps 689 mmHg 59%
    10:00 +22°C° 0 mm 1 mps 690 mmHg 52%
    11:00 +23°C° 0 mm 1 mps 689 mmHg 50%
    12:00 +24°C° 0 mm 1 mps 689 mmHg 48%
    13:00 +25°C° 0 mm 2 mps 689 mmHg 46%
    14:00 +25°C° 0 mm 2 mps 688 mmHg 48%
    15:00 +24°C° 0 mm 2 mps 688 mmHg 51%
    16:00 +24°C° 0 mm 2 mps 688 mmHg 54%
    17:00 +21°C° 0 mm 2 mps 687 mmHg 65%
    18:00 +19°C° 0 mm 2 mps 687 mmHg 76%
    19:00 +18°C° 0 mm 1 mps 687 mmHg 87%
    20:00 +16°C° 0 mm 1 mps 687 mmHg 90%
    21:00 +15°C° 0 mm 1 mps 687 mmHg 93%
    22:00 +14°C° 0 mm 1 mps 687 mmHg 95%
    23:00 +13°C° 0 mm 1 mps 687 mmHg 95%

    Day after tomorrow, 23 August, Wednesday

    Time Temperature Precipitation Wind Pressure Humidity
    00:00 +13°C° 0 mm 1 mps 687 mmHg 95%
    01:00 +13°C° 0 mm 1 mps 686 mmHg 95%
    02:00 +13°C° 0 mm 1 mps 686 mmHg 94%
    03:00 +12°C° 0 mm 1 mps 686 mmHg 92%
    04:00 +12°C° 0 mm 1 mps 686 mmHg 91%
    05:00 +14°C° 0 mm 1 mps 686 mmHg 86%
    06:00 +15°C° 0 mm 1 mps 687 mmHg 81%
    07:00 +18°C° 0 mm 1 mps 687 mmHg 76%
    08:00 +20°C° 0 mm 1 mps 687 mmHg 67%
    09:00 +23°C° 0 mm 1 mps 688 mmHg 57%
    10:00 +25°C° 0 mm 1 mps 688 mmHg 47%
    11:00 +26°C° 0.1 mm 1 mps 688 mmHg 44%
    12:00 +27°C° 0.1 mm 1 mps 688 mmHg 42%
    13:00 +28°C° 0.1 mm 2 mps 688 mmHg 39%
    14:00 +27°C° 0 mm 2 mps 688 mmHg 41%
    15:00 +27°C° 0 mm 2 mps 688 mmHg 42%
    16:00 +27°C° 0 mm 2 mps 688 mmHg 44%
    17:00 +24°C° 0.2 mm 2 mps 687 mmHg 56%
    18:00 +22°C° 0.2 mm 1 mps 687 mmHg 69%
    19:00 +19°C° 0.2 mm 1 mps 687 mmHg 81%
    20:00 +18°C° 0.1 mm 1 mps 687 mmHg 83%
    21:00 +16°C° 0.1 mm 1 mps 687 mmHg 84%
    22:00 +15°C° 0.1 mm 1 mps 687 mmHg 85%
    23:00 +15°C° 0 mm 1 mps 687 mmHg 83%

    24 August, Thursday

    Time Temperature Precipitation Wind Pressure Humidity
    00:00 +15°C° 0 mm 1 mps 687 mmHg 81%
    01:00 +15°C° 0 mm 1 mps 687 mmHg 79%
    02:00 +14°C° 0 mm 1 mps 687 mmHg 76%
    03:00 +14°C° 0 mm 1 mps 687 mmHg 74%
    04:00 +14°C° 0 mm 1 mps 687 mmHg 72%
    05:00 +16°C° 0 mm 1 mps 687 mmHg 68%
    06:00 +18°C° 0 mm 1 mps 687 mmHg 65%
    07:00 +20°C° 0 mm 1 mps 688 mmHg 62%
    08:00 +22°C° 0 mm 1 mps 688 mmHg 54%
    09:00 +23°C° 0 mm 0 mps 689 mmHg 47%
    10:00 +25°C° 0 mm 0 mps 689 mmHg 40%
    11:00 +28°C° 0 mm 1 mps 689 mmHg 40%
    12:00 +28°C° 0 mm 1 mps 689 mmHg 40%
    13:00 +28°C° 0 mm 1 mps 689 mmHg 39%
    14:00 +27°C° 0.2 mm 1 mps 689 mmHg 46%
    15:00 +26°C° 0.2 mm 1 mps 688 mmHg 52%
    16:00 +25°C° 0.2 mm 1 mps 688 mmHg 58%
    17:00 +24°C° 0.3 mm 1 mps 688 mmHg 65%
    18:00 +22°C° 0.3 mm 1 mps 688 mmHg 73%
    19:00 +20°C° 0.3 mm 1 mps 687 mmHg 81%
    20:00 +19°C° 0 mm 1 mps 688 mmHg 81%
    21:00 +19°C° 0 mm 1 mps 688 mmHg 82%
    22:00 +17°C° 0 mm 2 mps 688 mmHg 83%
    23:00 +16°C° 0 mm 2 mps 688 mmHg 82%

    25 August, Friday

    Time Temperature Precipitation Wind Pressure Humidity
    00:00 +16°C° 0 mm 2 mps 687 mmHg 81%
    01:00 +16°C° 0 mm 2 mps 687 mmHg 81%
    02:00 +16°C° 0 mm 2 mps 687 mmHg 80%
    03:00 +15°C° 0 mm 2 mps 687 mmHg 79%
    04:00 +15°C° 0 mm 2 mps 687 mmHg 79%
    05:00 +16°C° 0 mm 2 mps 687 mmHg 76%
    06:00 +17°C° 0 mm 2 mps 687 mmHg 74%
    07:00 +18°C° 0 mm 2 mps 688 mmHg 72%
    08:00 +21°C° 0 mm 2 mps 688 mmHg 63%
    09:00 +25°C° 0 mm 1 mps 688 mmHg 53%
    10:00 +28°C° 0 mm 1 mps 689 mmHg 44%
    11:00 +28°C° 0 mm 2 mps 689 mmHg 42%
    12:00 +29°C° 0 mm 2 mps 688 mmHg 40%
    13:00 +30°C° 0 mm 2 mps 688 mmHg 37%
    14:00 +29°C° 0.2 mm 2 mps 688 mmHg 41%
    15:00 +29°C° 0.2 mm 2 mps 688 mmHg 46%
    16:00 +28°C° 0.2 mm 2 mps 688 mmHg 50%
    17:00 +25°C° 1.6 mm 2 mps 688 mmHg 63%
    18:00 +23°C° 1.6 mm 1 mps 687 mmHg 76%
    19:00 +21°C° 1.6 mm 1 mps 687 mmHg 90%
    20:00 +20°C° 0.4 mm 1 mps 688 mmHg 91%
    21:00 +20°C° 0.4 mm 1 mps 688 mmHg 92%
    22:00 +19°C° 0.4 mm 1 mps 688 mmHg 93%
    23:00 +19°C° 0.1 mm 1 mps 688 mmHg 92%

    26 August, Saturday

    Time Temperature Precipitation Wind Pressure Humidity
    00:00 +18°C° 0.1 mm 2 mps 688 mmHg 92%
    01:00 +17°C° 0.1 mm 2 mps 687 mmHg 91%
    02:00 +17°C° 0.1 mm 2 mps 687 mmHg 90%
    03:00 +17°C° 0.1 mm 2 mps 687 mmHg 88%
    04:00 +17°C° 0.1 mm 2 mps 687 mmHg 87%
    05:00 +18°C° 0 mm 2 mps 687 mmHg 84%
    06:00 +18°C° 0 mm 2 mps 687 mmHg 82%
    07:00 +19°C° 0 mm 2 mps 687 mmHg 79%
    08:00 +23°C° 0 mm 2 mps 688 mmHg 68%
    09:00 +26°C° 0 mm 1 mps 688 mmHg 57%
    10:00 +28°C° 0 mm 1 mps 689 mmHg 45%
    11:00 +29°C° 0 mm 2 mps 688 mmHg 43%
    12:00 +30°C° 0 mm 2 mps 688 mmHg 41%
    13:00 +30°C° 0 mm 2 mps 688 mmHg 39%
    14:00 +30°C° 0.1 mm 2 mps 688 mmHg 41%
    15:00 +30°C° 0.1 mm 2 mps 688 mmHg 44%
    16:00 +29°C° 0.1 mm 2 mps 687 mmHg 46%
    17:00 +27°C° 0.4 mm 2 mps 687 mmHg 58%
    18:00 +25°C° 0.4 mm 2 mps 687 mmHg 69%
    19:00 +22°C° 0.4 mm 1 mps 686 mmHg 81%
    20:00 +21°C° 0.3 mm 1 mps 686 mmHg 82%
    21:00 +20°C° 0.3 mm 2 mps 687 mmHg 83%
    22:00 +19°C° 0.3 mm 2 mps 687 mmHg 85%
    23:00 +18°C° 0.5 mm 2 mps 687 mmHg 85%
    Show more